Weather in Chinhoyi

Zimbabwe     17°21′34″S   30°11′46″E
temp.,
°C
wind,
m/s
gust,
m/s
humid.,
%
clouds,
%
prec.,
mm/h
press.,
hPa
HPBL,
m
15 april, thu
thu1523:00+15ne11580 0.0 101911
02:00+14ene11695 0.0 101910
05:00+13ese11790 0.0 101810
08:00+19sse11600 0.0 1019272
11:00+26sse13290 0.0 10171815
14:00+29ese12160 0.0 10132399
17:00+25ne11270 0.0 101217
20:00+17nne22510 0.0 101723
16 april, fri
fri1623:00+15e116564 0.0 101811
02:00+14ene1158100 0.0 101811
05:00+13ese116695 0.0 101811
08:00+19e23435 0.0 1019265
11:00+27e37155 0.0 10161876
14:00+29e57142 0.0 10132740
17:00+25ene48220 0.0 1013471
20:00+17e23370 0.0 101848
17 april, sat
sat1723:00+18e414410 0.0 1019705
02:00+15ese310630 0.0 1019372
05:00+15ese413800 0.0 1020726
08:00+18ese59637 0.0 1022948
11:00+21e575198 0.0 10211631
14:00+24ne353999 0.0 10182260
17:00+21nnw2452100 0.0 1018165
20:00+19sse2453100 0.0 1021234
18 april, sun
sun1823:00+17e3664100 0.0 1022411
02:00+12e118791 0.0 102316
05:00+10ese1191100 0.0 102415
08:00+15e2363100 0.0 1025386
11:00+23ne1238100 0.0 10221348
14:00+26ne1229100 0.0 10182013
17:00+23nnw1239100 0.0 101729
20:00+16nne2456100 0.0 102179
19 april, mon
mon1923:00+14ne2468100 0.0 102296
02:00+11ene11845 0.0 102214
05:00+10e11936 0.0 102211
08:00+15ene236870 0.0 1022311
11:00+24e13362 0.0 10201539
14:00+28ese02250 0.0 10162361
17:00+24nne11330 0.0 101514
20:00+15nne22690 0.0 102018